This demonstration page uses our WeatherBlox Daily Observations layout. Learn more.

Left ArrowRight Arrow

Hourly Observations for June 23, 2018

Temp ( °F °C ) Dew Point ( °F °C ) Humidity (%) Winds ( mph kmh ) Pressure ( in mb ) Visibility ( mi km ) Precip ( " mm )
12:53 am 00:53 Clear 62 16.7 57 13.9 84 84 SW 10 17 29.70 1006 10 16 0.00 0.00
1:53 am 01:53 Clear 60 15.6 56 13.3 86 86 WSW 7 11 29.71 1006 10 16 0.00 0.00
2:53 am 02:53 Clear 59 15 57 13.9 93 93 WSW 9 15 29.73 1007 10 16 0.00 0.00
3:53 am 03:53 Clear 57 13.9 55 12.8 93 93 SW 10 17 29.74 1007 10 16 0.00 0.00
4:53 am 04:53 Partly Cloudy 54 12.2 53 11.7 97 97 WSW 3 6 29.75 1008 10 16 0.00 0.00
5:53 am 05:53 Sunny 55 12.8 53 11.7 93 93 SW 9 15 29.76 1008 10 16 0.00 0.00
6:53 am 06:53 Sunny 60 15.6 55 12.8 84 84 SW 12 19 29.75 1008 10 16 0.00 0.00
7:53 am 07:53 Sunny 63 17.2 54 12.2 73 73 WSW 8 13 29.75 1008 10 16 0.00 0.00
8:53 am 08:53 Sunny 66 18.9 53 11.7 63 63 SW 12 19 29.76 1008 10 16 0.00 0.00
9:53 am 09:53 Sunny 70 21.1 51 10.6 51 51 WSW 10 17 29.75 1007 10 16 0.00 0.00
10:53 am 10:53 Sunny 74 23.3 50 10 43 43 VRB 5 7 29.75 1007 10 16 0.00 0.00
11:53 am 11:53 Mostly Sunny 75 23.9 49 9.4 40 40 SW 15 24 29.74 1007 10 16 0.00 0.00
12:53 pm 12:53 Mostly Sunny 76 24.4 48 8.9 37 37 W 14 22 29.74 1007 10 16 0.00 0.00
1:53 pm 13:53 Mostly Cloudy 77 25 47 8.3 35 35 WSW 13 20 29.73 1007 10 16 0.00 0.00
2:53 pm 14:53 Sunny 77 25 47 8.3 35 35 W 10 17 29.73 1007 10 16 0.00 0.00
3:53 pm 15:53 Mostly Sunny 80 26.7 47 8.3 31 31 VRB 7 11 29.73 1007 10 16 0.00 0.00
4:24 pm 16:24 Mostly Cloudy with Nearby Thunderstorms 77 25 48 9 36 36 WSW 13 20 29.62 1003 10 16 0.00 0.00
4:39 pm 16:39 Mostly Cloudy 74 23.3 54 12.2 50 50 NW 17 28 29.65 1004 10 16 0.00 0.00
4:53 pm 16:53 Cloudy 68 20 56 13.3 65 65 WNW 23 37 29.78 1008 10 16 0.00 0.00
5:12 pm 17:12 Cloudy with Nearby Thunderstorms 68 20 55 13 64 64 W 22 35 29.68 1005 10 16 0.00 0.00
5:53 pm 17:53 Cloudy with Nearby Thunderstorms 67 19.4 56 13.3 68 68 N 17 28 29.81 1010 10 16 0.00 0.00
6:01 pm 18:01 Cloudy 67 19.4 56 13.3 68 68 NNW 18 30 29.74 1007 10 16 0.00 0.00
6:53 pm 18:53 Cloudy with Light Rain 64 17.8 55 12.8 73 73 NNW 8 13 29.83 1010 10 16 0.00 0.03
7:53 pm 19:53 Cloudy with Light Rain 63 17.2 60 15.6 90 90 SW 7 11 29.83 1010 10 16 0.01 0.25
8:53 pm 20:53 Mostly Sunny 64 17.8 60 15.6 87 87 SSW 7 11 29.84 1011 10 16 0.00 0.03
9:53 pm 21:53 Cloudy 65 18.3 59 15 81 81 SW 10 17 29.85 1011 10 16 0.00 0.00
10:53 pm 22:53 Mostly Cloudy 62 16.7 58 14.4 86 86 W 7 11 29.86 1011 10 16 0.00 0.00
11:53 pm 23:53 Cloudy 62 16.7 58 14.4 86 86 SW 7 11 29.87 1012 10 16 0.00 0.00

Powered by AerisWeather